sat.trackr.live / text

‹ back to catalog

KUIPER-00029

NORAD 63742 · 2025-088U

PAYLOAD ACTIVE UNKNOWN

§ Identity

Operator
Country
US
Launch date
2025-04-28
Launch site
AFETR
Launch vehicle
Mass (kg)
RCS (m²)

External: N2YO · Heavens-Above · Gunter

§ Orbital elements

Epoch: 2026-09-21T15:28:01.826976Z

Period
97.30 min
Inclination
51.9033°
Eccentricity
0.0000362
Mean motion
14.79928765 rev/d
Perigee alt
629.3 km
Apogee alt
629.8 km
Semi-major
7,007.7 km
B*
1.2329e-4
RAAN
305.2313°
Arg perigee
359.8953°
Mean anomaly
0.2009°
Rev number
7,662

§ Raw data

KUIPER-000291 63742U 25088U   26264.64446559  .00000719  00000+0  12329-3 0  99942 63742  51.9033 305.2313 0000362 359.8953   0.2009 14.79928765 76625

JSON: /api/v1/satellites/63742 · /tle

For live sub-satellite position, see the globe view (requires WebGL).

§ Visibility from observer

Set your observer location to see the next 7 days of passes ≥ 10°. The values pass through the URL so the page stays shareable.

No JS? Fill the form by hand. The geolocation button needs JavaScript.